Hudson — CGDG — position and weather

sailwx.info

Track history (hours):
 
Tides and Currents Weather Stations Pressure Air Temp Water Temp Dewpoint Dewpoint Depression Visibility Wind Speed Wind Dir Waves Ship Positions

Oceanographic research ship Hudson (Canada)

Detailed information on ship capabilities available from University of Delaware's Ocean Information Center.

Last reported at 2019-Apr-19 09:00 UTC. Time now 2019-Apr-19 10:31 UTC.
Position N 47°36' W 052°42'.

Length 85.03 m; beam 15.2 m; draft 6.28 m.

Type: SAR. MMSI: 316024000.

Wind from 190 at 5 knots

Barometer 1027.3 mb
Air temperature -4.7 ° C
Dewpoint -4.8 ° C

Date/timePositionNaut miles runAvg speedWind from/ knotsBaromVisibWave heightAir tempDewpointWater temp
2019-Apr-19 09:00N 47°36' W 052°42'0 0.0 190 / 51027.3 -4.7-4.8
2019-Apr-19 08:00N 47°36' W 052°42'0 0.0 190 / 41026.7 -5.0-5.1
2019-Apr-19 07:00N 47°36' W 052°42'0 0.0 200 / 31026.6 -5.1-5.3
2019-Apr-19 06:00N 47°36' W 052°42'0 0.0 200 / 31026.7 -4.7-4.9
2019-Apr-19 05:00N 47°36' W 052°42'0 0.0 200 / 41026.9 -4.3-4.8
2019-Apr-19 04:00N 47°36' W 052°42'0 0.0 190 / 51027.3 -3.8-5.3
2019-Apr-19 03:00N 47°36' W 052°42'0 0.0 200 / 41027.5 -3.0-5.9
2019-Apr-19 02:00N 47°36' W 052°42'0 0.0 200 / 21027.1 -2.2-6.3
2019-Apr-19 01:00N 47°36' W 052°42'0 0.0 010 / 31026.6 -0.6-7.5
2019-Apr-19 00:00N 47°36' W 052°42'0 0.0 350 / 21026.2 -0.1-8.1
2019-Apr-18 23:00N 47°36' W 052°42'0 0.0 300 / 31025.6 0.3-9.1
2019-Apr-18 22:00N 47°36' W 052°42'0 0.0 320 / 51024.9 0.4-9.7
2019-Apr-18 21:00N 47°36' W 052°42'0 0.0 320 / 41023.6 0.7-8.3
2019-Apr-18 20:00N 47°36' W 052°42'0 0.0 330 / 41022.7 1.0-7.1
2019-Apr-18 19:00N 47°36' W 052°42'0 0.0 320 / 61021.8 1.2-6.8
2019-Apr-18 18:00N 47°36' W 052°42'0 0.0 330 / 61021.0 1.2-6.6
2019-Apr-18 17:00N 47°36' W 052°42'0 0.0 320 / 51020.5 0.9-5.5
2019-Apr-18 16:00N 47°36' W 052°42'0 0.0 330 / 41019.5 1.0-5.1
2019-Apr-18 15:00N 47°36' W 052°42'0 0.0 320 / 71018.6 0.8-4.2
2019-Apr-18 13:00N 47°36' W 052°42'0 0.0 320 / 51017.0 0.3-2.1
2019-Apr-18 12:00N 47°36' W 052°42'0 0.0 320 / 51016.0 -0.1-1.9
2019-Apr-18 11:00N 47°36' W 052°42'0 0.0 320 / 61015.0 -0.2-1.6
2019-Apr-18 09:00N 47°36' W 052°42'0 0.0 330 / 41012.3 -0.4-1.8
2019-Apr-18 08:00N 47°36' W 052°42'0 0.0 320 / 61010.8 -0.5-1.9
2019-Apr-18 07:00N 47°36' W 052°42'0 0.0 300 / 51009.8 -0.4-2.0
2019-Apr-18 06:00N 47°36' W 052°42'0 0.0 330 / 41008.9 -0.2-2.1
2019-Apr-18 05:00N 47°36' W 052°42'0 0.0 330 / 61008.0 -0.1-1.9
2019-Apr-18 04:00N 47°36' W 052°42'0 0.0 330 / 61007.2 -0.0-1.3
2019-Apr-18 03:00N 47°36' W 052°42'0 0.0 340 / 41006.3 -0.1-0.4
2019-Apr-18 02:00N 47°36' W 052°42'0 0.0 330 / 61005.2 -0.0-0.2
2019-Apr-18 00:00N 47°36' W 052°42'0 0.0 350 / 71002.3 0.3 0.1
2019-Apr-17 23:00N 47°36' W 052°42'0 0.0 350 / 81000.4 0.4 0.2
2019-Apr-17 22:00N 47°36' W 052°42'0 0.0 350 / 9998.2 0.5 0.4
2019-Apr-17 21:00N 47°36' W 052°42'0 0.0 360 / 9996.0 0.8 0.7
2019-Apr-17 19:00N 47°36' W 052°42'0 0.0 360 / 11991.7 1.7 1.5
2019-Apr-17 18:00N 47°36' W 052°42'0 0.0 350 / 8989.7 2.2 2.0
2019-Apr-17 17:00N 47°36' W 052°42'0 0.0 340 / 8988.0 2.2 2.0
2019-Apr-17 16:00N 47°36' W 052°42'0 0.0 330 / 8986.5 2.1 1.9
2019-Apr-17 15:00N 47°36' W 052°42'28122875.6 340 / 7985.2 2.0 1.9
2019-Apr-17 14:01N 49°02' W 123°09'2812128162.6
2019-Apr-17 14:00N 47°36' W 052°42'0 0.0 330 / 6983.7 1.7 1.7
2019-Apr-17 13:00N 47°36' W 052°42'0 0.0 310 / 3982.5 1.6 1.6
2019-Apr-17 12:00N 47°36' W 052°42'0 0.0 250 / 4981.4 1.5 1.5
2019-Apr-17 10:00N 47°36' W 052°42'0 0.0 200 / 10980.1 0.7 0.7
2019-Apr-17 09:00N 47°36' W 052°42'0 0.0 210 / 10979.5 0.7 0.6
2019-Apr-17 08:00N 47°36' W 052°42'0 0.0 200 / 9979.1 0.6 0.6
2019-Apr-17 07:00N 47°36' W 052°42'0 0.0 210 / 9979.2 0.9 0.9
2019-Apr-17 05:00N 47°36' W 052°42'0 0.0 200 / 8979.7 1.4 1.3
2019-Apr-17 03:00N 47°36' W 052°42'0 0.0 190 / 7980.5 1.6 1.5
2019-Apr-17 02:00N 47°36' W 052°42'0 0.0 200 / 11980.6 1.7 1.7
2019-Apr-17 01:00N 47°36' W 052°42'0 0.0 200 / 10981.6 2.0 2.0
2019-Apr-17 00:00N 47°36' W 052°42'0 0.0 190 / 11982.4 2.3 2.3
2019-Apr-16 23:00N 47°36' W 052°42'0 0.0 200 / 8983.1 2.8 2.8
2019-Apr-16 22:00N 47°36' W 052°42'0 0.0 200 / 10983.4 3.5 3.5
2019-Apr-16 21:00N 47°36' W 052°42'0 0.0 200 / 12983.8 5.2 5.2
2019-Apr-16 20:00N 47°36' W 052°42'0 0.0 200 / 11984.2 6.0 6.1
2019-Apr-16 17:00N 47°36' W 052°42'0 0.0 200 / 12986.5 9.4 9.6
2019-Apr-16 16:00N 47°36' W 052°42'0 0.0 010 / 2987.8 5.1 5.4
2019-Apr-16 15:00N 47°36' W 052°42'0 0.0 360 / 1989.0 3.8 4.1
2019-Apr-16 14:00N 47°36' W 052°42'0 0.0 010 / 3990.3 2.6 2.9
2019-Apr-16 13:00N 47°36' W 052°42'0 0.0 010 / 2991.3 1.9 2.1
2019-Apr-16 12:00N 47°36' W 052°42'0 0.0 200 / 1992.5 1.4 1.7
2019-Apr-16 11:00N 47°36' W 052°42'28121072.2 360 / 1993.1 1.1 1.3
2019-Apr-16 08:22N 49°02' W 123°09'28122042.5
2019-Apr-16 07:00N 47°36' W 052°42'0 0.0 999.9 0.1 0.2
2019-Apr-16 06:00N 47°36' W 052°42'0 0.0 080 / 11001.2 -0.4-0.3
2019-Apr-16 05:00N 47°36' W 052°42'0 0.0 050 / 61004.0 -0.7-0.7
2019-Apr-16 04:00N 47°36' W 052°42'0 0.0 110 / 21006.0 -0.6-0.6
2019-Apr-16 02:00N 47°36' W 052°42'0 0.0 030 / 21008.7 -0.4-0.4
2019-Apr-16 00:00N 47°36' W 052°42'0 0.0 140 / 11012.6 -0.4-0.6
2019-Apr-15 22:00N 47°36' W 052°42'0 0.0 200 / 11013.9 0.4-3.5
2019-Apr-15 21:00N 47°36' W 052°42'0 0.0 210 / 31014.3 0.9-6.4
2019-Apr-15 20:00N 47°36' W 052°42'0 0.0 210 / 41014.5 1.4-7.6
2019-Apr-15 19:00N 47°36' W 052°42'0 0.0 210 / 21015.2 2.6-9.5
2019-Apr-15 18:00N 47°36' W 052°42'0 0.0 200 / 71015.6 2.6-10.2
2019-Apr-15 17:00N 47°36' W 052°42'0 0.0 170 / 71015.7 3.8-12.1
2019-Apr-15 16:00N 47°36' W 052°42'0 0.0 120 / 41015.8 4.5-9.1
2019-Apr-15 15:00N 47°36' W 052°42'0 0.0 120 / 71015.4 4.6-8.5
2019-Apr-15 14:00N 47°36' W 052°42'0 0.0 100 / 51015.9 4.9-5.7
2019-Apr-15 13:00N 47°36' W 052°42'28122548.4 350 / 21016.7 3.7-1.3
2019-Apr-15 11:53N 49°02' W 123°09'28123137.5
2019-Apr-15 11:00N 47°36' W 052°42'0 0.0 020 / 21015.5 2.1-0.9
2019-Apr-15 10:00N 47°36' W 052°42'0 0.0 190 / 41015.2 -0.3-0.5
2019-Apr-15 09:00N 47°36' W 052°42'0 0.0 190 / 41014.9 -1.6-1.8
2019-Apr-15 08:00N 47°36' W 052°42'0 0.0 150 / 11013.7 -0.4-1.4
2019-Apr-15 07:00N 47°36' W 052°42'0 0.0 010 / 11013.1 0.4-1.7
2019-Apr-15 06:00N 47°36' W 052°42'0 0.0 290 / 11012.4 1.1-1.9
2019-Apr-15 05:00N 47°36' W 052°42'0 0.0 340 / 11011.5 2.1-2.3
2019-Apr-15 03:00N 47°36' W 052°42'0 0.0 210 / 21010.5 2.5-1.5
2019-Apr-15 02:00N 47°36' W 052°42'0 0.0 310 / 21009.9 3.1-2.3
2019-Apr-15 01:00N 47°36' W 052°42'0 0.0 310 / 31008.9 3.2-1.7
2019-Apr-15 00:00N 47°36' W 052°42'0 0.0 320 / 31007.4 3.7-0.3
2019-Apr-14 23:00N 47°36' W 052°42'0 0.0 350 / 41005.8 3.8 1.9
2019-Apr-14 19:00N 47°36' W 052°42'0 0.0 230 / 111000.2 9.2-0.9
2019-Apr-14 18:00N 47°36' W 052°42'0 0.0 230 / 10999.4 10.4 1.5
2019-Apr-14 17:00N 47°36' W 052°42'0 0.0 230 / 9999.9 9.7 5.9
2019-Apr-14 16:00N 47°36' W 052°42'0 0.0 230 / 91000.2 7.9 7.2
2019-Apr-14 15:00N 47°36' W 052°42'0 0.0 230 / 11999.6 7.4 7.2
2019-Apr-14 13:00N 47°36' W 052°42'0 0.0 220 / 81000.6 5.6 5.7
2019-Apr-14 12:00N 47°36' W 052°42'0 0.0 210 / 71000.6 6.5 6.6
2019-Apr-14 11:00N 47°36' W 052°42'0 0.0 190 / 41001.4 4.9 5.0
2019-Apr-14 10:00N 47°36' W 052°42'0 0.0 190 / 71002.7 3.6 3.7
2019-Apr-14 09:00N 47°36' W 052°42'0 0.0 190 / 31003.3 3.1 3.2
2019-Apr-14 08:00N 47°36' W 052°42'0 0.0 200 / 31003.2 2.6 2.7
2019-Apr-14 07:00N 47°36' W 052°42'0 0.0 230 / 21004.2 2.5 2.5
2019-Apr-14 06:00N 47°36' W 052°42'0 0.0 190 / 71005.7 2.1 2.1
2019-Apr-14 05:00N 47°36' W 052°42'0 0.0 200 / 61007.6 1.8 1.7
2019-Apr-14 04:00N 47°36' W 052°42'0 0.0 200 / 71008.9 1.8 1.6
2019-Apr-14 03:00N 47°36' W 052°42'0 0.0 200 / 81010.2 2.1-0.7
2019-Apr-14 02:00N 47°36' W 052°42'0 0.0 200 / 71011.4 2.4-5.8
2019-Apr-14 01:00N 47°36' W 052°42'0 0.0 200 / 71012.1 2.6-11.1
2019-Apr-14 00:00N 47°36' W 052°42'0 0.0 200 / 71013.2 3.4-11.0
2019-Apr-13 23:00N 47°36' W 052°42'0 0.0 210 / 91014.7 4.1-11.0
2019-Apr-13 22:00N 47°36' W 052°42'0 0.0 210 / 91014.5 4.7-8.7
2019-Apr-13 21:00N 47°36' W 052°42'0 0.0 220 / 81015.2 5.2-11.2
2019-Apr-13 20:00N 47°36' W 052°42'0 0.0 220 / 121015.7 6.4-16.9
2019-Apr-13 19:00N 47°36' W 052°42'0 0.0 210 / 111016.4 6.8-12.2
2019-Apr-13 18:00N 47°36' W 052°42'0 0.0 210 / 81017.1 7.2-12.4
2019-Apr-13 17:00N 47°36' W 052°42'0 0.0 230 / 51018.0 6.9-13.1
2019-Apr-13 16:00N 47°36' W 052°42'0 0.0 230 / 61018.3 6.3-13.4
2019-Apr-13 15:00N 47°36' W 052°42'0 0.0 240 / 71018.9 5.6-12.7
2019-Apr-13 14:00N 47°36' W 052°42'0 0.0 230 / 51019.6 3.8-12.2
2019-Apr-13 13:00N 47°36' W 052°42'0 0.0 250 / 51020.1 3.1-11.2
2019-Apr-13 11:00N 47°36' W 052°42'0 0.0 210 / 61020.1 0.1-7.7
2019-Apr-13 10:00N 47°36' W 052°42'0 0.0 200 / 61019.5 -1.3-6.9
2019-Apr-13 09:00N 47°36' W 052°42'0 0.0 200 / 41018.3 -2.7-7.2
2019-Apr-13 08:00N 47°36' W 052°42'0 0.0 190 / 51018.5 -2.8-7.5
2019-Apr-13 07:00N 47°36' W 052°42'0 0.0 190 / 41018.0 -1.6-7.5
2019-Apr-13 06:00N 47°36' W 052°42'0 0.0 190 / 31017.7 -2.0-7.3
2019-Apr-13 05:00N 47°36' W 052°42'0 0.0 200 / 41017.7 -2.0-7.4
2019-Apr-13 04:00N 47°36' W 052°42'0 0.0 200 / 41017.7 -2.6-4.9
2019-Apr-13 03:00N 47°36' W 052°42'0 0.0 200 / 41017.2 -2.6-3.2
2019-Apr-13 02:00N 47°36' W 052°42'0 0.0 190 / 71017.2 -2.3-4.1
2019-Apr-13 01:00N 47°36' W 052°42'0 0.0 190 / 41017.4 -1.8-4.3
2019-Apr-13 00:00N 47°36' W 052°42'0 0.0 010 / 31016.5 -1.3-4.1
2019-Apr-12 23:00N 47°36' W 052°42'0 0.0 010 / 51015.5 -0.8-4.0
2019-Apr-12 22:00N 47°36' W 052°42'0 0.0 020 / 51014.7 0.1-6.0
2019-Apr-12 21:00N 47°36' W 052°42'0 0.0 030 / 61014.1 1.5-7.1
2019-Apr-12 20:00N 47°36' W 052°42'0 0.0 020 / 91013.6 1.6-6.4
2019-Apr-12 19:00N 47°36' W 052°42'0 0.0 030 / 81012.7 1.8-3.4
2019-Apr-12 18:00N 47°36' W 052°42'0 0.0 250 / 41012.7 5.9-6.1
2019-Apr-12 16:00N 47°36' W 052°42'0 0.0 250 / 61013.1 4.9-5.1
2019-Apr-12 15:00N 47°36' W 052°42'0 0.0 220 / 51013.6 4.9-4.2
2019-Apr-12 14:00N 47°36' W 052°42'0 0.0 230 / 51014.0 3.9-3.7
2019-Apr-12 13:00N 47°36' W 052°42'0 0.0 260 / 51014.0 2.5-2.5
2019-Apr-12 12:00N 47°36' W 052°42'0 0.0 220 / 51014.2 1.3-0.4
2019-Apr-12 11:00N 47°36' W 052°42'0 0.0 270 / 21014.3 0.7 0.3
2019-Apr-12 10:00N 47°36' W 052°42'0 0.0 300 / 41013.7 0.5 0.4
2019-Apr-12 08:00N 47°36' W 052°42'0 0.0 260 / 21011.6 0.3 0.2
2019-Apr-12 07:00N 47°36' W 052°42'0 0.0 260 / 71010.8 0.3 0.2
2019-Apr-12 06:00N 47°36' W 052°42'0 0.0 280 / 41009.9 0.5 0.4
2019-Apr-12 05:00N 47°36' W 052°42'0 0.0 250 / 41008.6 0.7 0.6
2019-Apr-12 04:00N 47°36' W 052°42'0 0.0 280 / 61008.4 1.0 0.9
2019-Apr-12 03:00N 47°36' W 052°42'0 0.0 280 / 31007.7 0.8 0.8
2019-Apr-12 02:00N 47°36' W 052°42'0 0.0 300 / 41007.2 1.0 0.9
2019-Apr-12 01:00N 47°36' W 052°42'0 0.0 290 / 31006.7 1.2 1.1
2019-Apr-11 22:00N 47°36' W 052°42'0 0.0 310 / 31003.5 2.7-0.9
2019-Apr-11 21:00N 47°36' W 052°42'0 0.0 310 / 51002.6 3.5-2.5
2019-Apr-11 20:00N 47°36' W 052°42'0 0.0 320 / 51001.5 3.9-2.2
2019-Apr-11 18:00N 47°36' W 052°42'0 0.0 310 / 61000.5 4.3-1.3
2019-Apr-11 17:00N 47°36' W 052°42'0 0.0 320 / 51000.0 4.1 2.3
2019-Apr-11 16:00N 47°36' W 052°42'0 0.0 280 / 6999.6 3.9 0.1
2019-Apr-11 15:00N 47°36' W 052°42'0 0.0 260 / 5999.5 3.7-0.6
2019-Apr-11 14:00N 47°36' W 052°42'0 0.0 280 / 3999.7 3.0 2.4
2019-Apr-11 13:00N 47°36' W 052°42'0 0.0 230 / 3999.3 1.8 1.8
2019-Apr-11 12:00N 47°36' W 052°42'0 0.0 240 / 4999.1 1.4 1.3
2019-Apr-11 11:00N 47°36' W 052°42'0 0.0 230 / 5998.8 1.3 1.1
2019-Apr-11 10:00N 47°36' W 052°42'0 0.0 200 / 4998.3 0.7 0.7
2019-Apr-11 09:00N 47°36' W 052°42'0 0.0 220 / 4997.8 0.8 0.7
2019-Apr-11 07:00N 47°36' W 052°42'0 0.0 200 / 4997.3 0.8 0.8
2019-Apr-11 06:00N 47°36' W 052°42'0 0.0 230 / 4997.1 0.9 0.9
2019-Apr-11 05:00N 47°36' W 052°42'0 0.0 220 / 4996.8 1.1 1.1
2019-Apr-11 04:00N 47°36' W 052°42'0 0.0 210 / 4996.9 1.0 1.1
2019-Apr-11 03:00N 47°36' W 052°42'0 0.0 200 / 3997.0 1.1 1.1
2019-Apr-11 02:00N 47°36' W 052°42'0 0.0 210 / 5997.2 1.2 1.3
2019-Apr-11 01:00N 47°36' W 052°42'0 0.0 210 / 4997.0 1.5 1.6
2019-Apr-10 23:00N 47°36' W 052°42'0 0.0 210 / 3996.6 1.5 1.6
2019-Apr-10 22:00N 47°36' W 052°42'0 0.0 210 / 3996.1 1.7 1.7
2019-Apr-10 21:00N 47°36' W 052°42'0 0.0 210 / 5996.0 1.7 1.8
2019-Apr-10 20:00N 47°36' W 052°42'0 0.0 220 / 5996.2 1.9 1.8
2019-Apr-10 19:00N 47°36' W 052°42'0 0.0 220 / 7996.5 2.5 1.0
2019-Apr-10 18:00N 47°36' W 052°42'0 0.0 230 / 7996.3 4.0-3.9
2019-Apr-10 17:00N 47°36' W 052°42'0 0.0 220 / 7996.0 4.1-3.9
2019-Apr-10 16:00N 47°36' W 052°42'0 0.0 230 / 8996.7 3.4-4.4
2019-Apr-10 15:00N 47°36' W 052°42'0 0.0 260 / 7997.0 3.2-4.9
2019-Apr-10 14:00N 47°36' W 052°42'0 0.0 220 / 8997.6 3.4-5.0
2019-Apr-10 12:00N 47°36' W 052°42'0 0.0 220 / 11998.1 1.3-6.2
2019-Apr-10 11:00N 47°36' W 052°42'0 0.0 200 / 7997.7 -0.2-6.8
2019-Apr-10 10:00N 47°36' W 052°42'0 0.0 190 / 8998.3 -2.6-7.5
2019-Apr-10 09:00N 47°36' W 052°42'0 0.0 190 / 7998.7 -2.4-7.9
2019-Apr-10 08:00N 47°36' W 052°42'0 0.0 190 / 7998.7 -2.0-8.6
2019-Apr-10 07:00N 47°36' W 052°42'0 0.0 190 / 7999.1 -1.9-9.6
2019-Apr-10 06:00N 47°36' W 052°42'0 0.0 190 / 7999.0 -1.3-10.3
2019-Apr-10 05:00N 47°36' W 052°42'0 0.0 220 / 10999.6 -1.1-11.5
2019-Apr-10 04:00N 47°36' W 052°42'0 0.0 210 / 8999.8 -1.0-12.3
2019-Apr-10 03:00N 47°36' W 052°42'0 0.0 200 / 6999.4 -1.2-12.1
2019-Apr-10 02:00N 47°36' W 052°42'0 0.0 200 / 5999.5 -1.2-11.3
2019-Apr-10 01:00N 47°36' W 052°42'0 0.0 200 / 9999.1 -1.3-11.3
2019-Apr-09 23:00N 47°36' W 052°42'0 0.0 220 / 11999.4 -0.6-14.1
2019-Apr-09 22:00N 47°36' W 052°42'0 0.0 200 / 9999.1 0.4-15.4
2019-Apr-09 21:00N 47°36' W 052°42'0 0.0 220 / 9999.6 1.4-15.9
2019-Apr-09 19:00N 47°36' W 052°42'0 0.0 230 / 71000.5 2.3-15.5
2019-Apr-09 18:00N 47°36' W 052°42'0 0.0 220 / 91001.4 1.6-15.6
2019-Apr-09 16:00N 47°36' W 052°42'0 0.0 230 / 101002.6 1.1-19.1
2019-Apr-09 15:00N 47°36' W 052°42'0 0.0 220 / 131003.8 -0.0-17.5
2019-Apr-09 12:00N 47°36' W 052°42'0 0.0 200 / 101005.9 -2.9-14.0
2019-Apr-09 11:00N 47°36' W 052°42'0 0.0 140 / 41006.8 -5.2-12.0
2019-Apr-09 10:00N 47°36' W 052°42'0 0.0 170 / 61007.2 -6.2-10.7
2019-Apr-09 09:00N 47°36' W 052°42'   200 / 91007.7 -6.2-10.5
Track history (hours):
 
Tides and Currents Weather Stations Pressure Air Temp Water Temp Dewpoint Dewpoint Depression Visibility Wind Speed Wind Dir Waves Ship Positions

Oceanographic research ship Hudson (Canada)

Detailed information on ship capabilities available from University of Delaware's Ocean Information Center.

Last reported at 2019-Apr-19 09:00 UTC. Time now 2019-Apr-19 10:31 UTC.
Position N 47°36' W 052°42'.

Length 85.03 m; beam 15.2 m; draft 6.28 m.

Type: SAR. MMSI: 316024000.

Wind from 190 at 5 knots

Barometer 1027.3 mb
Air temperature -4.7 ° C
Dewpoint -4.8 ° C

Date/timePositionNaut miles runAvg speedWind from/ knotsBaromVisibWave heightAir tempDewpointWater temp
2019-Apr-19 09:00N 47°36' W 052°42'0 0.0 190 / 51027.3 -4.7-4.8
2019-Apr-19 08:00N 47°36' W 052°42'0 0.0 190 / 41026.7 -5.0-5.1
2019-Apr-19 07:00N 47°36' W 052°42'0 0.0 200 / 31026.6 -5.1-5.3
2019-Apr-19 06:00N 47°36' W 052°42'0 0.0 200 / 31026.7 -4.7-4.9
2019-Apr-19 05:00N 47°36' W 052°42'0 0.0 200 / 41026.9 -4.3-4.8
2019-Apr-19 04:00N 47°36' W 052°42'0 0.0 190 / 51027.3 -3.8-5.3
2019-Apr-19 03:00N 47°36' W 052°42'0 0.0 200 / 41027.5 -3.0-5.9
2019-Apr-19 02:00N 47°36' W 052°42'0 0.0 200 / 21027.1 -2.2-6.3
2019-Apr-19 01:00N 47°36' W 052°42'0 0.0 010 / 31026.6 -0.6-7.5
2019-Apr-19 00:00N 47°36' W 052°42'0 0.0 350 / 21026.2 -0.1-8.1
2019-Apr-18 23:00N 47°36' W 052°42'0 0.0 300 / 31025.6 0.3-9.1
2019-Apr-18 22:00N 47°36' W 052°42'0 0.0 320 / 51024.9 0.4-9.7
2019-Apr-18 21:00N 47°36' W 052°42'0 0.0 320 / 41023.6 0.7-8.3
2019-Apr-18 20:00N 47°36' W 052°42'0 0.0 330 / 41022.7 1.0-7.1
2019-Apr-18 19:00N 47°36' W 052°42'0 0.0 320 / 61021.8 1.2-6.8
2019-Apr-18 18:00N 47°36' W 052°42'0 0.0 330 / 61021.0 1.2-6.6
2019-Apr-18 17:00N 47°36' W 052°42'0 0.0 320 / 51020.5 0.9-5.5
2019-Apr-18 16:00N 47°36' W 052°42'0 0.0 330 / 41019.5 1.0-5.1
2019-Apr-18 15:00N 47°36' W 052°42'0 0.0 320 / 71018.6 0.8-4.2
2019-Apr-18 13:00N 47°36' W 052°42'0 0.0 320 / 51017.0 0.3-2.1
2019-Apr-18 12:00N 47°36' W 052°42'0 0.0 320 / 51016.0 -0.1-1.9
2019-Apr-18 11:00N 47°36' W 052°42'0 0.0 320 / 61015.0 -0.2-1.6
2019-Apr-18 09:00N 47°36' W 052°42'0 0.0 330 / 41012.3 -0.4-1.8
2019-Apr-18 08:00N 47°36' W 052°42'0 0.0 320 / 61010.8 -0.5-1.9
2019-Apr-18 07:00N 47°36' W 052°42'0 0.0 300 / 51009.8 -0.4-2.0
2019-Apr-18 06:00N 47°36' W 052°42'0 0.0 330 / 41008.9 -0.2-2.1
2019-Apr-18 05:00N 47°36' W 052°42'0 0.0 330 / 61008.0 -0.1-1.9
2019-Apr-18 04:00N 47°36' W 052°42'0 0.0 330 / 61007.2 -0.0-1.3
2019-Apr-18 03:00N 47°36' W 052°42'0 0.0 340 / 41006.3 -0.1-0.4
2019-Apr-18 02:00N 47°36' W 052°42'0 0.0 330 / 61005.2 -0.0-0.2
2019-Apr-18 00:00N 47°36' W 052°42'0 0.0 350 / 71002.3 0.3 0.1
2019-Apr-17 23:00N 47°36' W 052°42'0 0.0 350 / 81000.4 0.4 0.2
2019-Apr-17 22:00N 47°36' W 052°42'0 0.0 350 / 9998.2 0.5 0.4
2019-Apr-17 21:00N 47°36' W 052°42'0 0.0 360 / 9996.0 0.8 0.7
2019-Apr-17 19:00N 47°36' W 052°42'0 0.0 360 / 11991.7 1.7 1.5
2019-Apr-17 18:00N 47°36' W 052°42'0 0.0 350 / 8989.7 2.2 2.0
2019-Apr-17 17:00N 47°36' W 052°42'0 0.0 340 / 8988.0 2.2 2.0
2019-Apr-17 16:00N 47°36' W 052°42'0 0.0 330 / 8986.5 2.1 1.9
2019-Apr-17 15:00N 47°36' W 052°42'28122875.6 340 / 7985.2 2.0 1.9
2019-Apr-17 14:01N 49°02' W 123°09'2812128162.6
2019-Apr-17 14:00N 47°36' W 052°42'0 0.0 330 / 6983.7 1.7 1.7
2019-Apr-17 13:00N 47°36' W 052°42'0 0.0 310 / 3982.5 1.6 1.6
2019-Apr-17 12:00N 47°36' W 052°42'0 0.0 250 / 4981.4 1.5 1.5
2019-Apr-17 10:00N 47°36' W 052°42'0 0.0 200 / 10980.1 0.7 0.7
2019-Apr-17 09:00N 47°36' W 052°42'0 0.0 210 / 10979.5 0.7 0.6
2019-Apr-17 08:00N 47°36' W 052°42'0 0.0 200 / 9979.1 0.6 0.6
2019-Apr-17 07:00N 47°36' W 052°42'0 0.0 210 / 9979.2 0.9 0.9
2019-Apr-17 05:00N 47°36' W 052°42'0 0.0 200 / 8979.7 1.4 1.3
2019-Apr-17 03:00N 47°36' W 052°42'0 0.0 190 / 7980.5 1.6 1.5
2019-Apr-17 02:00N 47°36' W 052°42'0 0.0 200 / 11980.6 1.7 1.7
2019-Apr-17 01:00N 47°36' W 052°42'0 0.0 200 / 10981.6 2.0 2.0
2019-Apr-17 00:00N 47°36' W 052°42'0 0.0 190 / 11982.4 2.3 2.3
2019-Apr-16 23:00N 47°36' W 052°42'0 0.0 200 / 8983.1 2.8 2.8
2019-Apr-16 22:00N 47°36' W 052°42'0 0.0 200 / 10983.4 3.5 3.5
2019-Apr-16 21:00N 47°36' W 052°42'0 0.0 200 / 12983.8 5.2 5.2
2019-Apr-16 20:00N 47°36' W 052°42'0 0.0 200 / 11984.2 6.0 6.1
2019-Apr-16 17:00N 47°36' W 052°42'0 0.0 200 / 12986.5 9.4 9.6
2019-Apr-16 16:00N 47°36' W 052°42'0 0.0 010 / 2987.8 5.1 5.4
2019-Apr-16 15:00N 47°36' W 052°42'0 0.0 360 / 1989.0 3.8 4.1
2019-Apr-16 14:00N 47°36' W 052°42'0 0.0 010 / 3990.3 2.6 2.9
2019-Apr-16 13:00N 47°36' W 052°42'0 0.0 010 / 2991.3 1.9 2.1
2019-Apr-16 12:00N 47°36' W 052°42'0 0.0 200 / 1992.5 1.4 1.7
2019-Apr-16 11:00N 47°36' W 052°42'28121072.2 360 / 1993.1 1.1 1.3
2019-Apr-16 08:22N 49°02' W 123°09'28122042.5
2019-Apr-16 07:00N 47°36' W 052°42'0 0.0 999.9 0.1 0.2
2019-Apr-16 06:00N 47°36' W 052°42'0 0.0 080 / 11001.2 -0.4-0.3
2019-Apr-16 05:00N 47°36' W 052°42'0 0.0 050 / 61004.0 -0.7-0.7
2019-Apr-16 04:00N 47°36' W 052°42'0 0.0 110 / 21006.0 -0.6-0.6
2019-Apr-16 02:00N 47°36' W 052°42'0 0.0 030 / 21008.7 -0.4-0.4
2019-Apr-16 00:00N 47°36' W 052°42'0 0.0 140 / 11012.6 -0.4-0.6
2019-Apr-15 22:00N 47°36' W 052°42'0 0.0 200 / 11013.9 0.4-3.5
2019-Apr-15 21:00N 47°36' W 052°42'0 0.0 210 / 31014.3 0.9-6.4
2019-Apr-15 20:00N 47°36' W 052°42'0 0.0 210 / 41014.5 1.4-7.6
2019-Apr-15 19:00N 47°36' W 052°42'0 0.0 210 / 21015.2 2.6-9.5
2019-Apr-15 18:00N 47°36' W 052°42'0 0.0 200 / 71015.6 2.6-10.2
2019-Apr-15 17:00N 47°36' W 052°42'0 0.0 170 / 71015.7 3.8-12.1
2019-Apr-15 16:00N 47°36' W 052°42'0 0.0 120 / 41015.8 4.5-9.1
2019-Apr-15 15:00N 47°36' W 052°42'0 0.0 120 / 71015.4 4.6-8.5
2019-Apr-15 14:00N 47°36' W 052°42'0 0.0 100 / 51015.9 4.9-5.7
2019-Apr-15 13:00N 47°36' W 052°42'28122548.4 350 / 21016.7 3.7-1.3
2019-Apr-15 11:53N 49°02' W 123°09'28123137.5
2019-Apr-15 11:00N 47°36' W 052°42'0 0.0 020 / 21015.5 2.1-0.9
2019-Apr-15 10:00N 47°36' W 052°42'0 0.0 190 / 41015.2 -0.3-0.5
2019-Apr-15 09:00N 47°36' W 052°42'0 0.0 190 / 41014.9 -1.6-1.8
2019-Apr-15 08:00N 47°36' W 052°42'0 0.0 150 / 11013.7 -0.4-1.4
2019-Apr-15 07:00N 47°36' W 052°42'0 0.0 010 / 11013.1 0.4-1.7
2019-Apr-15 06:00N 47°36' W 052°42'0 0.0 290 / 11012.4 1.1-1.9
2019-Apr-15 05:00N 47°36' W 052°42'0 0.0 340 / 11011.5 2.1-2.3
2019-Apr-15 03:00N 47°36' W 052°42'0 0.0 210 / 21010.5 2.5-1.5
2019-Apr-15 02:00N 47°36' W 052°42'0 0.0 310 / 21009.9 3.1-2.3
2019-Apr-15 01:00N 47°36' W 052°42'0 0.0 310 / 31008.9 3.2-1.7
2019-Apr-15 00:00N 47°36' W 052°42'0 0.0 320 / 31007.4 3.7-0.3
2019-Apr-14 23:00N 47°36' W 052°42'0 0.0 350 / 41005.8 3.8 1.9
2019-Apr-14 19:00N 47°36' W 052°42'0 0.0 230 / 111000.2 9.2-0.9
2019-Apr-14 18:00N 47°36' W 052°42'0 0.0 230 / 10999.4 10.4 1.5
2019-Apr-14 17:00N 47°36' W 052°42'0 0.0 230 / 9999.9 9.7 5.9
2019-Apr-14 16:00N 47°36' W 052°42'0 0.0 230 / 91000.2 7.9 7.2
2019-Apr-14 15:00N 47°36' W 052°42'0 0.0 230 / 11999.6 7.4 7.2
2019-Apr-14 13:00N 47°36' W 052°42'0 0.0 220 / 81000.6 5.6 5.7
2019-Apr-14 12:00N 47°36' W 052°42'0 0.0 210 / 71000.6 6.5 6.6
2019-Apr-14 11:00N 47°36' W 052°42'0 0.0 190 / 41001.4 4.9 5.0
2019-Apr-14 10:00N 47°36' W 052°42'0 0.0 190 / 71002.7 3.6 3.7
2019-Apr-14 09:00N 47°36' W 052°42'0 0.0 190 / 31003.3 3.1 3.2
2019-Apr-14 08:00N 47°36' W 052°42'0 0.0 200 / 31003.2 2.6 2.7
2019-Apr-14 07:00N 47°36' W 052°42'0 0.0 230 / 21004.2 2.5 2.5
2019-Apr-14 06:00N 47°36' W 052°42'0 0.0 190 / 71005.7 2.1 2.1
2019-Apr-14 05:00N 47°36' W 052°42'0 0.0 200 / 61007.6 1.8 1.7
2019-Apr-14 04:00N 47°36' W 052°42'0 0.0 200 / 71008.9 1.8 1.6
2019-Apr-14 03:00N 47°36' W 052°42'0 0.0 200 / 81010.2 2.1-0.7
2019-Apr-14 02:00N 47°36' W 052°42'0 0.0 200 / 71011.4 2.4-5.8
2019-Apr-14 01:00N 47°36' W 052°42'0 0.0 200 / 71012.1 2.6-11.1
2019-Apr-14 00:00N 47°36' W 052°42'0 0.0 200 / 71013.2 3.4-11.0
2019-Apr-13 23:00N 47°36' W 052°42'0 0.0 210 / 91014.7 4.1-11.0
2019-Apr-13 22:00N 47°36' W 052°42'0 0.0 210 / 91014.5 4.7-8.7
2019-Apr-13 21:00N 47°36' W 052°42'0 0.0 220 / 81015.2 5.2-11.2
2019-Apr-13 20:00N 47°36' W 052°42'0 0.0 220 / 121015.7 6.4-16.9
2019-Apr-13 19:00N 47°36' W 052°42'0 0.0 210 / 111016.4 6.8-12.2
2019-Apr-13 18:00N 47°36' W 052°42'0 0.0 210 / 81017.1 7.2-12.4
2019-Apr-13 17:00N 47°36' W 052°42'0 0.0 230 / 51018.0 6.9-13.1
2019-Apr-13 16:00N 47°36' W 052°42'0 0.0 230 / 61018.3 6.3-13.4
2019-Apr-13 15:00N 47°36' W 052°42'0 0.0 240 / 71018.9 5.6-12.7
2019-Apr-13 14:00N 47°36' W 052°42'0 0.0 230 / 51019.6 3.8-12.2
2019-Apr-13 13:00N 47°36' W 052°42'0 0.0 250 / 51020.1 3.1-11.2
2019-Apr-13 11:00N 47°36' W 052°42'0 0.0 210 / 61020.1 0.1-7.7
2019-Apr-13 10:00N 47°36' W 052°42'0 0.0 200 / 61019.5 -1.3-6.9
2019-Apr-13 09:00N 47°36' W 052°42'0 0.0 200 / 41018.3 -2.7-7.2
2019-Apr-13 08:00N 47°36' W 052°42'0 0.0 190 / 51018.5 -2.8-7.5
2019-Apr-13 07:00N 47°36' W 052°42'0 0.0 190 / 41018.0 -1.6-7.5
2019-Apr-13 06:00N 47°36' W 052°42'0 0.0 190 / 31017.7 -2.0-7.3
2019-Apr-13 05:00N 47°36' W 052°42'0 0.0 200 / 41017.7 -2.0-7.4
2019-Apr-13 04:00N 47°36' W 052°42'0 0.0 200 / 41017.7 -2.6-4.9
2019-Apr-13 03:00N 47°36' W 052°42'0 0.0 200 / 41017.2 -2.6-3.2
2019-Apr-13 02:00N 47°36' W 052°42'0 0.0 190 / 71017.2 -2.3-4.1
2019-Apr-13 01:00N 47°36' W 052°42'0 0.0 190 / 41017.4 -1.8-4.3
2019-Apr-13 00:00N 47°36' W 052°42'0 0.0 010 / 31016.5 -1.3-4.1
2019-Apr-12 23:00N 47°36' W 052°42'0 0.0 010 / 51015.5 -0.8-4.0
2019-Apr-12 22:00N 47°36' W 052°42'0 0.0 020 / 51014.7 0.1-6.0
2019-Apr-12 21:00N 47°36' W 052°42'0 0.0 030 / 61014.1 1.5-7.1
2019-Apr-12 20:00N 47°36' W 052°42'0 0.0 020 / 91013.6 1.6-6.4
2019-Apr-12 19:00N 47°36' W 052°42'0 0.0 030 / 81012.7 1.8-3.4
2019-Apr-12 18:00N 47°36' W 052°42'0 0.0 250 / 41012.7 5.9-6.1
2019-Apr-12 16:00N 47°36' W 052°42'0 0.0 250 / 61013.1 4.9-5.1
2019-Apr-12 15:00N 47°36' W 052°42'0 0.0 220 / 51013.6 4.9-4.2
2019-Apr-12 14:00N 47°36' W 052°42'0 0.0 230 / 51014.0 3.9-3.7
2019-Apr-12 13:00N 47°36' W 052°42'0 0.0 260 / 51014.0 2.5-2.5
2019-Apr-12 12:00N 47°36' W 052°42'0 0.0 220 / 51014.2 1.3-0.4
2019-Apr-12 11:00N 47°36' W 052°42'0 0.0 270 / 21014.3 0.7 0.3
2019-Apr-12 10:00N 47°36' W 052°42'0 0.0 300 / 41013.7 0.5 0.4
2019-Apr-12 08:00N 47°36' W 052°42'0 0.0 260 / 21011.6 0.3 0.2
2019-Apr-12 07:00N 47°36' W 052°42'0 0.0 260 / 71010.8 0.3 0.2
2019-Apr-12 06:00N 47°36' W 052°42'0 0.0 280 / 41009.9 0.5 0.4
2019-Apr-12 05:00N 47°36' W 052°42'0 0.0 250 / 41008.6 0.7 0.6
2019-Apr-12 04:00N 47°36' W 052°42'0 0.0 280 / 61008.4 1.0 0.9
2019-Apr-12 03:00N 47°36' W 052°42'0 0.0 280 / 31007.7 0.8 0.8
2019-Apr-12 02:00N 47°36' W 052°42'0 0.0 300 / 41007.2 1.0 0.9
2019-Apr-12 01:00N 47°36' W 052°42'0 0.0 290 / 31006.7 1.2 1.1
2019-Apr-11 22:00N 47°36' W 052°42'0 0.0 310 / 31003.5 2.7-0.9
2019-Apr-11 21:00N 47°36' W 052°42'0 0.0 310 / 51002.6 3.5-2.5
2019-Apr-11 20:00N 47°36' W 052°42'0 0.0 320 / 51001.5 3.9-2.2
2019-Apr-11 18:00N 47°36' W 052°42'0 0.0 310 / 61000.5 4.3-1.3
2019-Apr-11 17:00N 47°36' W 052°42'0 0.0 320 / 51000.0 4.1 2.3
2019-Apr-11 16:00N 47°36' W 052°42'0 0.0 280 / 6999.6 3.9 0.1
2019-Apr-11 15:00N 47°36' W 052°42'0 0.0 260 / 5999.5 3.7-0.6
2019-Apr-11 14:00N 47°36' W 052°42'0 0.0 280 / 3999.7 3.0 2.4
2019-Apr-11 13:00N 47°36' W 052°42'0 0.0 230 / 3999.3 1.8 1.8
2019-Apr-11 12:00N 47°36' W 052°42'0 0.0 240 / 4999.1 1.4 1.3
2019-Apr-11 11:00N 47°36' W 052°42'0 0.0 230 / 5998.8 1.3 1.1
2019-Apr-11 10:00N 47°36' W 052°42'0 0.0 200 / 4998.3 0.7 0.7
2019-Apr-11 09:00N 47°36' W 052°42'0 0.0 220 / 4997.8 0.8 0.7
2019-Apr-11 07:00N 47°36' W 052°42'0 0.0 200 / 4997.3 0.8 0.8
2019-Apr-11 06:00N 47°36' W 052°42'0 0.0 230 / 4997.1 0.9 0.9
2019-Apr-11 05:00N 47°36' W 052°42'0 0.0 220 / 4996.8 1.1 1.1
2019-Apr-11 04:00N 47°36' W 052°42'0 0.0 210 / 4996.9 1.0 1.1
2019-Apr-11 03:00N 47°36' W 052°42'0 0.0 200 / 3997.0 1.1 1.1
2019-Apr-11 02:00N 47°36' W 052°42'0 0.0 210 / 5997.2 1.2 1.3
2019-Apr-11 01:00N 47°36' W 052°42'0 0.0 210 / 4997.0 1.5 1.6
2019-Apr-10 23:00N 47°36' W 052°42'0 0.0 210 / 3996.6 1.5 1.6
2019-Apr-10 22:00N 47°36' W 052°42'0 0.0 210 / 3996.1 1.7 1.7
2019-Apr-10 21:00N 47°36' W 052°42'0 0.0 210 / 5996.0 1.7 1.8
2019-Apr-10 20:00N 47°36' W 052°42'0 0.0 220 / 5996.2 1.9 1.8
2019-Apr-10 19:00N 47°36' W 052°42'0 0.0 220 / 7996.5 2.5 1.0
2019-Apr-10 18:00N 47°36' W 052°42'0 0.0 230 / 7996.3 4.0-3.9
2019-Apr-10 17:00N 47°36' W 052°42'0 0.0 220 / 7996.0 4.1-3.9
2019-Apr-10 16:00N 47°36' W 052°42'0 0.0 230 / 8996.7 3.4-4.4
2019-Apr-10 15:00N 47°36' W 052°42'0 0.0 260 / 7997.0 3.2-4.9
2019-Apr-10 14:00N 47°36' W 052°42'0 0.0 220 / 8997.6 3.4-5.0
2019-Apr-10 12:00N 47°36' W 052°42'0 0.0 220 / 11998.1 1.3-6.2
2019-Apr-10 11:00N 47°36' W 052°42'0 0.0 200 / 7997.7 -0.2-6.8
2019-Apr-10 10:00N 47°36' W 052°42'0 0.0 190 / 8998.3 -2.6-7.5
2019-Apr-10 09:00N 47°36' W 052°42'0 0.0 190 / 7998.7 -2.4-7.9
2019-Apr-10 08:00N 47°36' W 052°42'0 0.0 190 / 7998.7 -2.0-8.6
2019-Apr-10 07:00N 47°36' W 052°42'0 0.0 190 / 7999.1 -1.9-9.6
2019-Apr-10 06:00N 47°36' W 052°42'0 0.0 190 / 7999.0 -1.3-10.3
2019-Apr-10 05:00N 47°36' W 052°42'0 0.0 220 / 10999.6 -1.1-11.5
2019-Apr-10 04:00N 47°36' W 052°42'0 0.0 210 / 8999.8 -1.0-12.3
2019-Apr-10 03:00N 47°36' W 052°42'0 0.0 200 / 6999.4 -1.2-12.1
2019-Apr-10 02:00N 47°36' W 052°42'0 0.0 200 / 5999.5 -1.2-11.3
2019-Apr-10 01:00N 47°36' W 052°42'0 0.0 200 / 9999.1 -1.3-11.3
2019-Apr-09 23:00N 47°36' W 052°42'0 0.0 220 / 11999.4 -0.6-14.1
2019-Apr-09 22:00N 47°36' W 052°42'0 0.0 200 / 9999.1 0.4-15.4
2019-Apr-09 21:00N 47°36' W 052°42'0 0.0 220 / 9999.6 1.4-15.9
2019-Apr-09 19:00N 47°36' W 052°42'0 0.0 230 / 71000.5 2.3-15.5
2019-Apr-09 18:00N 47°36' W 052°42'0 0.0 220 / 91001.4 1.6-15.6
2019-Apr-09 16:00N 47°36' W 052°42'0 0.0 230 / 101002.6 1.1-19.1
2019-Apr-09 15:00N 47°36' W 052°42'0 0.0 220 / 131003.8 -0.0-17.5
2019-Apr-09 12:00N 47°36' W 052°42'0 0.0 200 / 101005.9 -2.9-14.0
2019-Apr-09 11:00N 47°36' W 052°42'0 0.0 140 / 41006.8 -5.2-12.0
2019-Apr-09 10:00N 47°36' W 052°42'0 0.0 170 / 61007.2 -6.2-10.7
2019-Apr-09 09:00N 47°36' W 052°42'   200 / 91007.7 -6.2-10.5

Dump ship's entire track history